Powrót do katalogu

STARLINK-33800

AktywnyŁącznośćVLEO
NORAD 63576·PAYLOAD·🇺🇸 United States

Wystrzelony Apr 14, 2025 z Cape Canaveral Space Force Station

Loading…

Następne Przeloty (najbliższe 24 godziny)

TLE

ŚwieżeSource: CelesTrak SupGP

Epoka: Sep 15, 2026, 03:14 UTC

1 63576C 25076H   26258.13520833  .00043889  00000+0  15895-2 0  2584
2 63576  43.0027 331.6195 0001312 260.1703 178.5428 15.27559668    19

Śledź STARLINK-33800 w czasie rzeczywistym z AllMySat

Download on the App Store